カタログに戻る

STARLINK-38050

運用中通信SSO
NORAD 69981·PAYLOAD·🇺🇸 United States

打ち上げ Jul 11, 2026 から Vandenberg Space Force Base

Loading…

次のパス (今後24時間)

TLE

最新Source: CelesTrak SupGP

元期: Sep 14, 2026, 23:08 UTC

1 69981C 26159G   26257.96437500 -.02560000  00000+0 -29712-1 0  2575
2 69981  97.2852  99.7189 0002092  98.7751 112.4968 15.63099287    13

AllMySatでSTARLINK-38050をリアルタイム追跡

Download on the App Store